SPACEBEE-74 (48636 NORAD) Tracking and Keplerian Element Data

This shows tracking and keplerian element data for the satellite.

Feedback or suggestion? Click here.




ElementValue
Catalog48636
NameSPACEBEE-74
Epoch Orbit2847
Epoch Day210.86413494
Epoch Year2021
RAAN268.7175
Inclination97.2537
Eccentricity0.0015326
Argument of Perigee308.5638
Mean Anonmoly51.422
Mean Motion15.14528796
Decay Rate3.27E-05
L11 48636U 21006FC 21210.86413494 .00003270 00000-0 18041-3 0 9990
L22 48636 97.2537 268.7175 0015326 308.5638 51.4220 15.14528796 28471

Live tracking and technical data element details for SPACEBEE-74 (NORAD 48636). SPACEBEE-74 can be tracked NOW for your location showing map with azimuth and elevation plus other details from your city location.

Track the satellite on the map from your city or location and see movement details for azimuth, elevation, latitude, longitude, range, height, and movement on the map or in text.







IsCatalogInMostPopularTable: catalog: 48636, numindb: 21
Update: records affected: 1



GetName: 48636 SPACEBEE-74

Hit Count: updated at: Sat, 31 Jul 2021 16:38:08 GMT